Hartsville, SC

7:33 PM EDT on September 29, 2016 (GMT -0400)
Hartsville Regional

Weather History for KHVS - December, 2013

Change the Weather History Date:

Sunday, December 29, 2013

  Actual Average (KFLO) Record (KFLO)
Temperature  
Mean Temperature 55 °F 45 °F  
Max Temperature 66 °F 55 °F 82 °F (2015)
Min Temperature 44 °F 35 °F 19 °F (1977)
Degree Days  
Heating Degree Days 10 20  
Month to date heating degree days 516  
Since 1 July heating degree days 938  
Cooling Degree Days 0 0  
Month to date cooling degree days 0  
Year to date cooling degree days 2059  
Growing Degree Days 5 (Base 50)    
Moisture  
Dew Point 51 °F    
Average Humidity 94    
Maximum Humidity 100    
Minimum Humidity 68    
Precipitation  
Precipitation 0.00 in 0.10 in 1.24 in (2013)
Month to date precipitation 2.81  
Year to date precipitation 42.71  
Sea Level Pressure  
Sea Level Pressure 29.89 in    
Wind  
Wind Speed 5 mph (WSW)    
Max Wind Speed 18 mph    
Max Gust Speed 28 mph    
Visibility 7 miles    
Events      
T = Trace of Precipitation, MM = Missing Value Source: NWS Daily Summary

Daily Weather History Graph

Daily Weather History Graph

Search for Another Location

Airport or City:

Trip Planner

Search our weather history database for the weather conditions in past years. The results will help you decide how hot, cold, wet, or windy it might be!

Date:

Astronomy

Dec. 29, 2013 Rise Set
Actual Time 7:26 AM EST 5:19 PM EST
Civil Twilight 6:58 AM EST 5:47 PM EST
Nautical Twilight 6:27 AM EST 6:18 PM EST
Astronomical Twilight 5:56 AM EST 6:49 PM EST
Moon 4:11 AM EST 2:53 PM EST
Length of Visible Light 10h 48m
Length of Day
9h 52m
Waning Crescent, 11% of the Moon is Illuminated
Dec 29
Waning Crescent
Jan 1
New
Jan 7
First Quarter
Jan 15
Full
Jan 24
Last Quarter

Hourly Weather History & Observations

Time (EST) Temp. Windchill Dew Point Humidity Pressure Visibility Wind Dir Wind Speed Gust Speed Precip Events Conditions
12:15 AM 46.4 °F 42.9 °F 41.0 °F 81% 30.08 in 5.0 mi ENE 6.9 mph - N/A   Overcast
12:35 AM 44.6 °F 42.2 °F 42.8 °F 93% 30.08 in 4.0 mi ENE 4.6 mph - N/A   Overcast
12:55 AM 44.6 °F 42.2 °F 44.6 °F 100% 30.07 in 2.0 mi NNE 4.6 mph - N/A   Overcast
1:15 AM 44.6 °F 42.2 °F 44.6 °F 100% 30.05 in 2.5 mi North 4.6 mph - N/A   Overcast
1:35 AM 44.6 °F 43.1 °F 44.6 °F 100% 30.04 in 4.0 mi NE 3.5 mph - N/A   Overcast
1:55 AM 46.4 °F 45.2 °F 46.4 °F 100% 30.04 in 5.0 mi West 3.5 mph - N/A   Overcast
2:15 AM 46.4 °F 45.2 °F 46.4 °F 100% 30.03 in 4.0 mi West 3.5 mph - N/A   Overcast
2:35 AM 46.4 °F - 46.4 °F 100% 30.01 in 3.0 mi Calm Calm - N/A   Overcast
2:55 AM 46.4 °F - 46.4 °F 100% 30.01 in 3.0 mi Calm Calm - N/A   Overcast
3:15 AM 44.6 °F 42.2 °F 44.6 °F 100% 29.99 in 3.0 mi North 4.6 mph - N/A   Overcast
3:35 AM 44.6 °F 40.7 °F 44.6 °F 100% 29.97 in 4.0 mi NNE 6.9 mph - N/A   Overcast
3:55 AM 46.4 °F 44.3 °F 46.4 °F 100% 29.96 in 4.0 mi NE 4.6 mph - N/A   Overcast
4:15 AM 46.4 °F - 46.4 °F 100% 29.94 in 4.0 mi Calm Calm - N/A   Overcast
4:35 AM 46.4 °F 44.3 °F 46.4 °F 100% 29.93 in 4.0 mi NNE 4.6 mph - N/A   Overcast
4:55 AM 46.4 °F 45.2 °F 46.4 °F 100% 29.91 in 3.0 mi ENE 3.5 mph - N/A   Overcast
5:15 AM 46.4 °F 43.5 °F 46.4 °F 100% 29.89 in 2.5 mi NE 5.8 mph - N/A   Overcast
5:35 AM 46.4 °F 45.2 °F 46.4 °F 100% 29.89 in 5.0 mi ENE 3.5 mph - N/A   Overcast
5:55 AM 46.4 °F 45.2 °F 46.4 °F 100% 29.87 in 4.0 mi NNE 3.5 mph - N/A   Overcast
6:15 AM 48.2 °F - 48.2 °F 100% 29.87 in 2.0 mi Calm Calm - N/A   Overcast
6:35 AM 48.2 °F - 48.2 °F 100% 29.86 in 2.0 mi Calm Calm - N/A   Overcast
6:55 AM 50.0 °F - 50.0 °F 100% 29.85 in 3.0 mi Calm Calm - N/A   Overcast
7:15 AM 50.0 °F - 50.0 °F 100% 29.84 in 1.5 mi Calm Calm - N/A   Overcast
7:35 AM 50.0 °F - 50.0 °F 100% 29.84 in 2.5 mi SE 4.6 mph - N/A   Overcast
7:55 AM 51.8 °F - 51.8 °F 100% 29.82 in 2.5 mi ESE 3.5 mph - N/A   Overcast
8:15 AM 53.6 °F - 53.6 °F 100% 29.80 in 1.5 mi SE 3.5 mph - N/A   Overcast
8:35 AM 55.4 °F - 55.4 °F 100% 29.81 in 2.0 mi South 8.1 mph - N/A   Overcast
8:55 AM 59.0 °F - 59.0 °F 100% 29.79 in 2.5 mi South 9.2 mph - N/A   Overcast
9:15 AM 60.8 °F - 60.8 °F 100% 29.80 in 2.5 mi SSW 9.2 mph 16.1 mph N/A   Overcast
9:35 AM 62.6 °F - 62.6 °F 100% 29.79 in 4.0 mi South 9.2 mph 16.1 mph N/A   Overcast
9:55 AM 64.4 °F - 64.4 °F 100% 29.79 in 5.0 mi South 15.0 mph 20.7 mph N/A   Overcast
10:15 AM 66.2 °F - 66.2 °F 100% 29.80 in 2.5 mi SW 16.1 mph 23.0 mph N/A   Overcast
10:35 AM 66.2 °F - 66.2 °F 100% 29.81 in 10.0 mi SW 15.0 mph 23.0 mph N/A   Overcast
10:55 AM 66.2 °F - 66.2 °F 100% 29.79 in 7.0 mi SW 12.7 mph 17.3 mph N/A   Overcast
11:15 AM 66.2 °F - - N/A% 29.80 in 10.0 mi SW 10.4 mph 20.7 mph N/A   Overcast
11:35 AM 62.6 °F - - N/A% 29.81 in 10.0 mi West 11.5 mph 17.3 mph N/A   Overcast
11:55 AM 60.8 °F - 60.8 °F 100% 29.83 in 10.0 mi WSW 18.4 mph 27.6 mph N/A   Overcast
12:15 PM 60.8 °F - 60.8 °F 100% 29.83 in 10.0 mi WSW 12.7 mph 23.0 mph N/A   Overcast
12:35 PM 60.8 °F - 59.0 °F 94% 29.82 in 10.0 mi West 8.1 mph 18.4 mph N/A   Mostly Cloudy
12:55 PM 60.8 °F - 55.4 °F 82% 29.81 in 10.0 mi WSW 9.2 mph 16.1 mph N/A   Scattered Clouds
1:15 PM 62.6 °F - 53.6 °F 72% 29.81 in 10.0 mi WSW 12.7 mph 20.7 mph N/A   Mostly Cloudy
1:35 PM 62.6 °F - 53.6 °F 72% 29.81 in 10.0 mi West 10.4 mph 16.1 mph N/A   Scattered Clouds
1:55 PM 62.6 °F - 51.8 °F 68% 29.81 in 10.0 mi West 9.2 mph 17.3 mph N/A   Mostly Cloudy
2:15 PM 60.8 °F - 51.8 °F 72% 29.81 in 10.0 mi WSW 6.9 mph 18.4 mph N/A   Scattered Clouds
2:35 PM 60.8 °F - 51.8 °F 72% 29.82 in 10.0 mi West 6.9 mph 17.3 mph N/A   Scattered Clouds
2:55 PM 60.8 °F - 51.8 °F 72% 29.82 in 10.0 mi West 9.2 mph 16.1 mph N/A   Scattered Clouds
3:15 PM 60.8 °F - 51.8 °F 72% 29.82 in 10.0 mi West 5.8 mph - N/A   Scattered Clouds
3:35 PM 59.0 °F - 51.8 °F 77% 29.83 in 10.0 mi West 6.9 mph - N/A   Scattered Clouds
3:55 PM 59.0 °F - 50.0 °F 72% 29.83 in 10.0 mi West 6.9 mph - N/A   Clear
4:15 PM 59.0 °F - 50.0 °F 72% 29.84 in 10.0 mi West 5.8 mph - N/A   Clear
4:35 PM 55.4 °F - 50.0 °F 82% 29.84 in 10.0 mi Calm Calm - N/A   Clear
4:55 PM 55.4 °F - 50.0 °F 82% 29.85 in 10.0 mi West 5.8 mph - N/A   Clear
5:15 PM 53.6 °F - 50.0 °F 88% 29.86 in 10.0 mi Calm Calm - N/A   Scattered Clouds
5:35 PM 53.6 °F - 50.0 °F 88% 29.86 in 10.0 mi West 3.5 mph - N/A   Scattered Clouds
5:55 PM 53.6 °F - 50.0 °F 88% 29.88 in 10.0 mi Calm Calm - N/A   Mostly Cloudy
6:15 PM 53.6 °F - 50.0 °F 88% 29.89 in 10.0 mi West 4.6 mph - N/A   Overcast
6:35 PM 51.8 °F - 50.0 °F 94% 29.89 in 10.0 mi Calm Calm - N/A   Mostly Cloudy
6:55 PM 51.8 °F - 51.8 °F 100% 29.90 in 10.0 mi Calm Calm - N/A   Clear
7:15 PM 51.8 °F - 51.8 °F 100% 29.91 in 10.0 mi West 3.5 mph - N/A   Clear
7:35 PM 51.8 °F - 51.8 °F 100% 29.91 in 10.0 mi WSW 4.6 mph - N/A   Clear
7:55 PM 50.0 °F - 50.0 °F 100% 29.91 in 10.0 mi WSW 3.5 mph - N/A   Clear
8:15 PM 50.0 °F - 50.0 °F 100% 29.92 in 10.0 mi WSW 3.5 mph - N/A   Clear
8:35 PM 50.0 °F - 50.0 °F 100% 29.92 in 10.0 mi WSW 5.8 mph - N/A   Clear
8:55 PM 51.8 °F - 51.8 °F 100% 29.93 in 10.0 mi WSW 4.6 mph - N/A   Clear
9:15 PM 51.8 °F - 51.8 °F 100% 29.93 in 10.0 mi Calm Calm - N/A   Clear
9:35 PM 50.0 °F - 50.0 °F 100% 29.93 in 10.0 mi Calm Calm - N/A   Clear
9:55 PM 50.0 °F - 50.0 °F 100% 29.94 in 10.0 mi WSW 3.5 mph - N/A   Clear
10:15 PM 50.0 °F - 50.0 °F 100% 29.94 in 10.0 mi WSW 3.5 mph - N/A   Clear
10:35 PM 50.0 °F - 50.0 °F 100% 29.95 in 10.0 mi Calm Calm - N/A   Clear
10:55 PM 48.2 °F - 48.2 °F 100% 29.95 in 10.0 mi WSW 3.5 mph - N/A   Clear
11:15 PM 48.2 °F - 48.2 °F 100% 29.95 in 10.0 mi West 3.5 mph - N/A   Clear
11:35 PM 48.2 °F - 48.2 °F 100% 29.96 in 10.0 mi Calm Calm - N/A   Clear
11:55 PM 46.4 °F 45.2 °F 46.4 °F 100% 29.96 in 10.0 mi SSW 3.5 mph - N/A   Clear